Reflectivity
-20 -20 -20 -20 -20 -20 -20 -20 -20 -20 -20 -20 -20 -20 -20 -20 -20 -20 -20 -20 -19 -17
-20 -20 -20 -20 -20 -20 -20 -20 -20 -20 -20 -20 -20 -20 -20 -20 -20 -20 -20 -20 -20 -20
-20 -20 -20 -20 -20 -20 -20 -20 -20 -20 -20 -20 -20 -20 -20 -20 -20 -20 -20 -20 -20 -20
-20 -20 27 -19 -20 -20 -20 -20 -20 -20 -20 -20 -20 -20 -20 -20 -20 -20 -20 -16 -20 -20
-20 -20 -20 -20 -20 -20 -20 -20 -20 -20 -20 -20 -20 -16 2 -20 -20 -4 -20 -20 30 -20
-20 -20 -20 -13 -17 -20 -20 -20 -20 -20 -20 -20 -20 -20 -20 -20 -20 -20 -20 9 -0 -16
-20 -20 -20 -20 -20 -20 -20 -20 -20 -20 -20 -20 -20 -20 -20 -20 -17 -20 -20 -20 -20 4
-20 -20 -20 -20 -20 -20 -20 -20 30 -20 -20 -20 -20 -20 -20 -20 -20 -20 -20 -20 -20 -8
-20 -20 -20 -20 -20 2 16 41 25 -20 -20 -20 -20 -20 -17 -20 -20 -20 -20 -20 -5 32
-20 -20 -20 -20 -20 -19 -0 -4 -11 -19 -20 11 -20 -20 -20 -20 -20 -20 -20 -20 14 29
-20 -20 -20 -20 -20 -10 -7 -10 -11 21 14 33 -20 -20 14 -20 -20 -20 -20 -20 -20 -7
-20 -20 -20 -20 -20 -10 13 -20 26 -13 33 11 -8 27 -15 28 -20 -20 -20 -20 24 28
-20 -20 -20 -20 -15 29 5 -16 -20 -20 14 -20 -20 -20 -20 -20 -20 -18 30 -12 29 28
-20 -20 -20 -20 24 27 5 -17 -20 -20 -20 -20 -20 -19 -11 -11 -20 -20 28 28 29 30
Wind_Speed
10 8 7 7 5 4 5 5 5 6 6 6 6 5 5 3 4 4 4 5 4 3
10 10 9 7 6 5 5 4 6 6 6 6 6 6 6 4 5 4 4 5 5 4
12 11 9 7 8 7 6 6 6 6 6 6 6 6 6 4 5 5 4 3 5 4
11 11 8 8 8 8 7 7 7 7 6 6 6 6 6 6 5 6 5 5 5 6
11 9 9 10 9 8 9 7 8 7 7 7 6 6 7 7 6 7 6 6 6 7
11 11 12 11 10 9 9 9 7 7 7 7 7 7 7 7 7 7 7 6 6 6
13 13 12 12 11 10 11 11 9 8 9 8 8 8 8 7 7 6 6 6 6 7
14 12 10 10 10 10 10 10 9 8 8 7 7 7 9 8 8 7 7 6 6 6
11 11 11 10 9 8 9 7 9 10 10 9 8 11 13 11 8 7 6 6 6 6
11 11 11 11 9 10 10 7 9 11 11 11 9 13 14 15 7 8 7 6 6 5
10 11 11 10 10 10 7 9 9 9 10 9 9 13 15 15 8 6 6 7 8 7
9 9 10 11 12 8 6 6 8 5 7 7 6 12 14 12 6 5 6 6 6 7
6 8 11 12 9 4 5 5 6 6 6 7 7 11 13 12 5 5 4 4 5 12
5 5 6 4 5 5 5 5 5 5 4 5 6 6 12 14 7 6 5 6 5 5
Wind_Direction
195 201 207 197 192 201 200 210 199 200 199 210 198 190 207 210 215 195 213 242 235 228
202 202 207 200 190 195 206 211 204 197 202 205 200 197 201 216 223 207 220 233 238 226
203 206 206 192 203 198 205 206 197 202 202 202 202 199 199 217 225 223 229 226 216 222
204 205 203 205 199 201 199 199 201 203 204 204 204 198 198 213 217 228 230 218 212 222
198 194 197 206 205 193 204 201 204 198 196 199 203 194 199 208 213 222 221 224 203 212
199 194 200 207 207 196 199 207 200 195 199 198 196 193 201 203 208 217 219 221 199 188
202 202 201 203 201 203 204 207 201 196 205 206 190 196 197 199 207 212 218 215 205 177
209 203 204 209 207 206 204 204 208 199 210 199 202 198 194 197 203 207 220 207 202 181
207 198 197 209 202 198 217 222 194 206 208 199 211 205 199 191 202 205 205 207 218 196
203 199 200 206 199 208 208 192 211 215 209 207 212 204 198 196 193 198 196 187 181 199
206 198 198 198 207 219 204 198 211 222 223 223 211 193 203 193 186 189 184 179 174 188
205 195 190 202 205 214 199 189 201 201 212 215 228 199 200 177 172 183 190 185 171 177
200 190 196 208 200 171 176 190 182 191 215 209 223 196 192 171 170 185 179 179 185 194
217 206 209 178 160 166 174 179 183 200 212 220 210 200 183 176 179 186 181 196 184 201